Weather History for Sault Ste Marie, MI

Change the Weather History Date:

Tuesday, June 3, 2014

  Actual Average Record
Temperature  
Mean Temperature 55 °F 57 °F  
Max Temperature 63 °F 68 °F 88 °F (1948)
Min Temperature 47 °F 45 °F 26 °F (1982)
Degree Days  
Heating Degree Days 10 9  
Month to date heating degree days 12 27  
Since 1 June heating degree days 12 27  
Since 1 July heating degree days 9629 8510  
Cooling Degree Days 0 0  
Month to date cooling degree days 1 0  
Year to date cooling degree days 3 5  
Since 1 June cooling degree days 1 0  
Growing Degree Days 6 (Base 50)    
Moisture  
Dew Point 49 °F    
Average Humidity 79    
Maximum Humidity 97    
Minimum Humidity 60    
Precipitation  
Precipitation 0.01 in 0.09 in 0.73 in (1969)
Month to date precipitation 0.58 0.27  
Year to date precipitation 12.62 10.71  
Sea Level Pressure  
Sea Level Pressure 29.69 in    
Wind  
Wind Speed 11 mph (West)    
Max Wind Speed 21 mph    
Max Gust Speed 28 mph    
Visibility 9 miles    
Events Rain    
T = Trace of Precipitation, MM = Missing Value Source: NWS Daily Summary

Daily Weather History Graph

Daily Weather History Graph

Search for Another Location

Airport:

Trip Planner

Search our weather history database for the weather conditions in past years. The results will help you decide how hot, cold, wet, or windy it might be!

Date:

Astronomy

Jun. 03, 2014 Rise Set
Actual Time 5:47 AM EDT 9:24 PM EDT
Civil Twilight 5:09 AM EDT 10:02 PM EDT
Nautical Twilight 4:18 AM EDT 10:53 PM EDT
Astronomical Twilight 3:09 AM EDT 12:03 AM EDT
Moon 11:22 AM EDT (6/3) 12:40 AM EDT (6/3)
Length of Visible Light 16h 53m
Length of Day
15h 37m
Waxing Crescent, 30% of the Moon is Illuminated
Jun 3
Waxing Crescent
Jun 5
First Quarter
Jun 13
Full
Jun 19
Last Quarter
Jun 27
New

Hourly Weather History & Observations

Time (EDT) Temp. Dew Point Humidity Pressure Visibility Wind Dir Wind Speed Gust Speed Precip Events Conditions
12:55 AM 61.0 °F 59.0 °F 93% 29.62 in 10.0 mi Calm Calm - 0.00 in   Overcast
1:55 AM 62.1 °F 57.9 °F 86% 29.60 in 10.0 mi SW 8.1 mph - N/A   Mostly Cloudy
2:55 AM 62.1 °F 57.9 °F 86% 29.59 in 10.0 mi SW 10.4 mph - N/A   Mostly Cloudy
3:55 AM 63.0 °F 59.0 °F 87% 29.57 in 10.0 mi SW 11.5 mph - N/A   Mostly Cloudy
4:55 AM 62.1 °F 57.9 °F 86% 29.57 in 10.0 mi SSW 10.4 mph - N/A   Mostly Cloudy
5:55 AM 60.1 °F 57.0 °F 90% 29.57 in 10.0 mi SSW 11.5 mph - N/A   Mostly Cloudy
6:55 AM 60.1 °F 55.9 °F 86% 29.57 in 10.0 mi SSW 10.4 mph - N/A   Mostly Cloudy
7:55 AM 60.1 °F 55.0 °F 83% 29.57 in 10.0 mi SW 11.5 mph - N/A   Mostly Cloudy
8:55 AM 61.0 °F 55.0 °F 81% 29.58 in 10.0 mi WSW 9.2 mph 19.6 mph N/A   Overcast
9:23 AM 55.0 °F 50.0 °F 83% 29.62 in 7.0 mi WNW 17.3 mph 27.6 mph 0.00 in Rain Light Rain
9:36 AM 51.1 °F 48.0 °F 89% 29.63 in 6.0 mi WNW 16.1 mph 24.2 mph 0.00 in Rain Light Rain
9:47 AM 50.0 °F 46.9 °F 89% 29.65 in 5.0 mi WNW 17.3 mph 26.5 mph 0.00 in Rain Light Rain
9:55 AM 48.9 °F 46.0 °F 90% 29.66 in 8.0 mi WNW 15.0 mph 25.3 mph 0.01 in Rain Light Rain
10:55 AM 48.9 °F 46.0 °F 90% 29.68 in 10.0 mi WNW 12.7 mph 23.0 mph 0.00 in   Overcast
11:42 AM 50.0 °F 46.9 °F 89% 29.70 in 2.0 mi WNW 11.5 mph 24.2 mph 0.00 in Rain Light Rain
11:49 AM 50.0 °F 46.4 °F 87% 29.70 in 5.0 mi West 11.5 mph 20.7 mph 0.00 in Rain Light Rain
11:55 AM 51.1 °F 46.9 °F 86% 29.70 in 10.0 mi WNW 10.4 mph 20.7 mph 0.00 in   Overcast
12:11 PM 51.1 °F 46.9 °F 86% 29.71 in 4.0 mi WNW 13.8 mph 21.9 mph 0.00 in Rain Light Rain
12:55 PM 52.0 °F 46.9 °F 83% 29.73 in 10.0 mi WNW 12.7 mph 19.6 mph 0.00 in   Overcast
1:20 PM 51.1 °F 48.0 °F 89% 29.74 in 2.5 mi WNW 11.5 mph - 0.00 in Rain Light Rain
1:22 PM 51.1 °F 48.0 °F 89% 29.74 in 3.0 mi WNW 10.4 mph - 0.00 in Rain Light Rain
1:44 PM 51.1 °F 46.9 °F 86% 29.74 in 10.0 mi WNW 10.4 mph - 0.00 in Rain Light Rain
1:51 PM 51.8 °F 46.4 °F 82% 29.75 in 10.0 mi West 9.2 mph - 0.00 in Rain Light Rain
1:55 PM 52.0 °F 48.0 °F 86% 29.75 in 10.0 mi West 9.2 mph - 0.00 in   Overcast
2:55 PM 52.0 °F 46.0 °F 80% 29.75 in 10.0 mi West 11.5 mph - N/A   Overcast
3:55 PM 54.0 °F 45.0 °F 72% 29.76 in 10.0 mi West 12.7 mph 17.3 mph N/A   Overcast
4:15 PM 55.0 °F 46.0 °F 72% 29.77 in 10.0 mi West 11.5 mph 18.4 mph N/A   Overcast
4:55 PM 55.9 °F 46.0 °F 69% 29.76 in 10.0 mi West 9.2 mph - N/A   Overcast
5:55 PM 60.1 °F 46.9 °F 62% 29.76 in 10.0 mi West 15.0 mph 23.0 mph N/A   Mostly Cloudy
6:55 PM 57.9 °F 46.9 °F 67% 29.77 in 10.0 mi WNW 11.5 mph - N/A   Overcast
7:55 PM 55.9 °F 46.0 °F 69% 29.79 in 10.0 mi WNW 10.4 mph 17.3 mph N/A   Overcast
8:55 PM 55.0 °F 45.0 °F 69% 29.80 in 10.0 mi West 8.1 mph - N/A   Mostly Cloudy
9:55 PM 53.1 °F 44.1 °F 71% 29.82 in 10.0 mi WNW 11.5 mph - N/A   Overcast
11:55 PM 46.9 °F 42.1 °F 83% 29.83 in 10.0 mi West 6.9 mph - N/A   Clear